Temp
60 61 61 60 61 61 61 61 61 61 62 62 62 62 62 62 62 86 84 81 82 73 73 89 91 91 93 88 89 89 82 77 73 75 76 83 81 87 88 86 87 89 88 91 95
60 60 60 60 60 60 60 60 61 61 62 62 62 62 62 62 91 87 80 76 75 74 90 88 87 90 87 84 88 88 85 74 79 80 79 81 81 82 83 83 83 85 91 93 95
60 60 60 60 60 60 60 60 61 61 62 62 62 62 62 70 87 84 76 74 75 80 91 90 90 89 83 86 82 83 76 78 79 80 81 80 81 83 81 79 82 81 86 90 91
59 59 59 59 60 60 60 60 61 62 62 61 62 62 63 88 71 89 79 77 77 92 92 89 88 83 80 77 82 76 79 79 80 80 79 78 82 80 81 81 86 87 88 89 89
59 59 59 59 59 59 60 60 61 61 61 61 62 63 80 84 82 92 79 84 94 94 89 87 84 83 77 78 80 77 77 79 80 80 80 80 79 79 80 84 87 88 87 87 88
58 58 58 59 59 59 59 59 59 59 61 62 63 62 87 76 91 93 93 92 93 92 90 90 84 87 80 77 78 77 78 78 80 79 80 77 79 78 82 85 84 85 84 86 86
58 58 58 58 59 59 59 59 58 59 61 63 64 80 86 81 93 95 93 91 91 90 86 89 88 84 83 76 80 78 75 77 78 78 78 80 77 75 82 84 82 82 84 84 85
58 57 57 58 58 59 59 59 58 60 62 64 65 84 80 92 97 92 94 91 92 92 89 88 90 85 81 81 77 75 75 72 78 76 77 77 70 79 83 82 81 79 80 81 83
58 57 57 58 58 59 58 58 60 62 64 66 82 86 79 86 88 92 93 87 89 89 88 87 87 81 81 77 73 73 69 68 71 79 75 75 70 79 84 82 79 78 79 79 81
58 57 57 57 58 58 57 59 62 66 74 84 86 81 85 81 88 88 92 89 85 85 83 82 84 79 83 76 66 64 66 69 68 75 75 72 73 78 81 81 77 77 77 78 78
58 57 57 57 58 57 66 85 82 80 84 78 79 78 82 88 90 87 89 86 85 82 74 77 77 70 70 71 70 69 67 66 72 75 68 70 70 75 79 79 76 76 75 76 77
57 57 57 57 57 58 75 84 78 81 75 81 79 80 83 86 79 83 89 80 77 72 74 74 68 73 73 72 69 68 66 67 70 73 70 69 68 74 76 74 74 73 73 75 76
56 56 57 57 58 71 85 80 86 84 77 77 80 80 82 84 78 79 84 80 75 71 71 68 72 72 70 70 67 69 66 65 63 68 72 69 66 71 72 73 73 75 75 76 75
56 56 56 56 70 88 83 85 88 85 72 70 76 79 82 83 75 84 85 80 75 70 71 70 74 70 69 68 69 62 68 65 64 62 57 69 54 67 70 70 71 72 73 75 75
56 56 56 56 86 86 82 88 89 81 54 73 76 88 83 78 78 77 84 80 71 72 70 68 69 69 66 67 68 64 68 65 64 63 61 63 56 65 68 66 70 73 73 74 75
55 56 56 77 88 85 87 86 82 65 52 68 76 74 75 76 75 79 78 81 78 71 71 71 74 70 69 69 68 69 66 66 66 62 54 59 57 62 67 67 71 73 73 72 74
55 55 69 82 82 87 87 82 65 59 70 65 68 72 71 68 70 71 68 68 66 60 61 67 67 70 70 66 69 66 61 52 52 54 53 60 55 59 68 70 70 70 71 73 74
53 54 61 82 85 84 83 73 57 63 65 71 70 70 66 67 67 67 66 65 67 65 62 56 55 64 69 66 61 63 59 52 41 46 51 60 51 60 67 69 70 71 71 72 72
52 81 85 83 82 83 77 64 62 64 67 66 68 64 64 66 65 65 65 63 65 66 57 56 55 68 69 70 68 61 55 62 51 54 49 56 62 67 70 66 68 69 68 68 70
82 83 80 83 80 79 73 58 64 69 69 68 61 64 60 63 62 63 63 65 62 66 67 61 50 63 63 66 68 63 66 50 53 36 39 50 52 56 61 63 65 65 67 69 71
79 78 81 83 81 77 67 64 66 71 70 65 64 62 63 60 62 61 61 64 64 63 65 63 55 57 63 60 59 60 58 58 56 50 39 40 49 65 61 65 63 66 66 67 67
76 73 82 82 73 73 69 63 56 66 70 67 67 64 61 61 60 60 58 62 63 64 58 61 56 49 56 65 62 60 57 57 43 41 45 42 42 66 65 66 65 62 61 67 68
72 73 82 80 66 66 65 63 64 64 63 63 62 63 64 61 51 59 60 63 62 61 56 59 50 42 51 56 60 56 58 57 55 52 42 37 46 66 63 54 60 62 61 55 64
73 67 72 72 69 61 59 60 60 64 62 63 61 64 61 59 62 57 59 62 60 60 53 57 48 49 44 51 56 50 54 56 52 39 45 48 51 57 57 59 60 59 53 49 61
68 59 58 61 63 61 60 59 58 57 63 63 59 59 56 54 57 57 58 60 61 56 57 56 45 52 54 55 54 53 53 54 51 53 42 49 50 55 57 52 56 59 57 55 56
64 61 67 65 58 59 54 57 55 57 58 57 57 57 58 54 56 53 57 56 54 57 55 55 39 50 47 55 54 50 54 55 54 54 53 52 50 57 59 59 57 57 56 57 58
66 64 61 54 59 59 59 56 56 57 59 60 57 56 56 58 59 60 60 59 57 53 51 45 42 45 43 51 50 43 52 52 54 56 53 45 53 60 54 56 57 58 56 55 58
MSLP
1017.53 1017.25 1016.99 1016.78 1016.60 1016.38 1016.13 1015.90 1015.66 1015.44 1015.26 1015.05 1014.78 1014.45 1014.08 1013.73 1013.18 1012.55 1011.77 1012.47 1012.13 1011.96 1011.83 1010.59 1009.80 1009.32 1008.70 1008.37 1008.13 1007.79 1006.24 1006.06 1007.17 1007.28 1008.02 1008.59 1008.32 1008.47 1008.75 1008.20 1008.30 1008.30 1008.37 1008.62 1008.47
1017.54 1017.26 1017.00 1016.71 1016.47 1016.28 1016.04 1015.82 1015.60 1015.39 1015.21 1015.02 1014.77 1014.39 1014.00 1013.50 1011.67 1011.74 1012.59 1012.40 1012.17 1011.80 1010.50 1009.71 1009.09 1008.78 1008.33 1008.28 1008.18 1006.98 1006.48 1007.66 1008.43 1008.75 1008.69 1008.97 1008.84 1008.70 1008.49 1008.38 1008.48 1008.70 1008.83 1008.78 1008.49
1017.52 1017.21 1016.93 1016.66 1016.37 1016.16 1015.92 1015.71 1015.50 1015.24 1014.99 1014.86 1014.73 1014.39 1013.85 1013.29 1011.24 1011.65 1012.30 1012.28 1012.13 1011.55 1010.53 1009.96 1009.36 1008.53 1008.19 1008.15 1008.45 1007.88 1007.79 1008.84 1009.25 1009.59 1009.57 1009.23 1008.96 1009.23 1008.80 1008.36 1009.11 1009.09 1008.90 1008.83 1008.66
1017.56 1017.19 1016.85 1016.59 1016.37 1016.12 1015.86 1015.60 1015.37 1015.10 1014.81 1014.46 1014.18 1013.92 1013.42 1012.19 1011.13 1011.85 1012.22 1012.11 1011.70 1010.63 1009.86 1009.41 1008.96 1008.40 1008.19 1008.38 1009.03 1008.74 1009.34 1009.46 1009.67 1010.16 1009.91 1009.47 1009.57 1009.10 1009.26 1009.31 1009.62 1009.46 1009.37 1008.94 1008.58
1017.64 1017.28 1016.90 1016.55 1016.28 1016.06 1015.81 1015.56 1015.29 1015.01 1014.75 1014.57 1014.23 1013.76 1013.06 1011.32 1011.44 1011.80 1012.23 1011.71 1010.87 1010.28 1009.67 1009.11 1008.86 1008.75 1008.64 1009.16 1009.21 1009.05 1009.69 1009.96 1010.19 1010.20 1010.14 1010.28 1009.48 1009.30 1009.23 1009.69 1009.73 1009.48 1009.29 1008.89 1008.62
1017.50 1017.21 1016.91 1016.59 1016.26 1015.98 1015.73 1015.48 1015.20 1014.92 1014.69 1014.45 1014.17 1013.83 1012.04 1011.23 1011.88 1011.77 1011.62 1011.22 1010.75 1010.20 1009.82 1009.50 1009.44 1009.26 1009.38 1009.61 1009.40 1010.07 1009.98 1009.95 1010.02 1009.93 1010.01 1009.93 1009.32 1009.68 1008.89 1009.54 1009.47 1009.32 1009.15 1009.00 1008.90
1017.33 1017.00 1016.72 1016.47 1016.18 1015.88 1015.61 1015.35 1015.10 1014.83 1014.58 1014.31 1014.05 1013.14 1011.38 1011.68 1011.83 1011.72 1011.51 1011.30 1011.35 1010.91 1010.39 1010.47 1010.22 1009.74 1009.73 1009.83 1010.37 1010.17 1009.60 1009.91 1009.82 1009.82 1009.51 1009.92 1008.24 1008.77 1008.86 1009.08 1009.07 1009.10 1009.04 1009.02 1008.87
1017.29 1016.93 1016.57 1016.28 1016.02 1015.76 1015.49 1015.21 1014.91 1014.65 1014.39 1014.16 1014.00 1012.77 1011.42 1011.77 1011.67 1011.50 1011.31 1011.31 1011.39 1011.27 1011.06 1011.06 1010.48 1010.15 1009.87 1010.44 1010.23 1009.58 1009.43 1008.44 1008.84 1009.80 1009.84 1009.80 1007.78 1007.81 1008.52 1008.68 1008.62 1009.08 1009.15 1009.14 1009.03
1017.20 1016.85 1016.47 1016.15 1015.87 1015.59 1015.28 1014.96 1014.60 1014.39 1014.21 1013.84 1013.32 1011.87 1011.17 1011.76 1011.33 1011.38 1011.25 1011.04 1011.08 1011.27 1011.39 1011.36 1010.64 1010.22 1010.05 1009.27 1008.92 1009.04 1008.32 1008.58 1008.76 1009.13 1009.55 1009.26 1008.06 1007.95 1008.23 1008.21 1008.43 1008.94 1009.09 1009.26 1009.29
1017.08 1016.69 1016.34 1016.00 1015.71 1015.44 1015.02 1014.72 1014.44 1014.27 1013.86 1013.06 1012.53 1011.66 1011.35 1011.14 1011.33 1011.49 1011.43 1011.29 1010.91 1010.83 1010.60 1010.51 1010.13 1009.55 1009.26 1008.81 1008.43 1009.19 1008.98 1008.87 1008.72 1008.98 1009.22 1008.78 1007.95 1007.69 1007.82 1007.92 1008.39 1008.69 1009.11 1009.36 1009.52
1016.93 1016.50 1016.16 1015.82 1015.52 1015.32 1014.76 1014.17 1013.98 1013.18 1012.27 1012.05 1011.83 1011.42 1011.25 1011.31 1011.58 1011.25 1011.37 1011.13 1010.89 1010.49 1010.06 1010.37 1009.18 1009.43 1010.15 1010.46 1010.53 1010.34 1009.87 1009.29 1009.01 1009.36 1009.75 1008.63 1008.14 1007.65 1007.55 1007.65 1008.29 1008.78 1009.23 1009.43 1009.58
1016.82 1016.37 1015.98 1015.63 1015.36 1015.07 1014.62 1013.19 1013.68 1013.63 1012.27 1012.21 1012.09 1011.83 1011.73 1011.61 1011.07 1011.12 1011.45 1010.93 1010.71 1010.29 1010.63 1010.24 1009.88 1010.64 1011.00 1011.03 1010.88 1010.53 1009.98 1009.33 1009.47 1009.50 1009.69 1008.67 1007.79 1007.50 1007.50 1007.99 1008.71 1009.19 1009.37 1009.51 1009.52
1016.76 1016.26 1015.87 1015.45 1015.08 1014.70 1013.77 1013.97 1013.83 1013.55 1012.00 1011.82 1011.76 1011.35 1011.30 1011.52 1011.04 1011.05 1011.33 1011.08 1010.81 1010.64 1010.57 1010.33 1010.35 1011.32 1011.34 1010.94 1010.67 1010.22 1010.06 1010.11 1010.22 1009.99 1009.33 1008.27 1007.07 1006.21 1007.68 1008.33 1008.91 1009.18 1009.50 1009.49 1009.58
1016.75 1016.20 1015.71 1015.30 1015.14 1013.96 1013.50 1013.88 1013.66 1013.57 1011.40 1011.66 1011.18 1011.29 1011.41 1011.26 1011.22 1011.71 1011.53 1011.46 1010.99 1010.76 1010.94 1010.62 1010.99 1011.26 1011.18 1010.95 1010.91 1010.58 1010.99 1011.18 1010.67 1009.99 1008.71 1008.76 1006.89 1006.27 1006.87 1007.78 1008.55 1008.89 1009.18 1009.42 1009.61
1016.75 1016.18 1015.72 1015.15 1013.96 1013.35 1013.95 1013.69 1013.51 1013.43 1011.09 1011.50 1011.00 1011.23 1011.22 1011.01 1011.37 1011.60 1011.92 1011.48 1011.11 1010.94 1011.63 1010.52 1011.02 1011.10 1011.09 1011.16 1011.69 1011.20 1011.66 1011.31 1010.76 1009.69 1009.17 1007.56 1007.98 1005.96 1007.31 1007.61 1007.74 1008.12 1009.08 1009.37 1009.75
1016.64 1016.11 1015.68 1014.58 1013.85 1013.93 1013.88 1013.81 1013.43 1012.22 1010.86 1011.05 1010.94 1010.84 1010.82 1011.14 1011.41 1011.52 1011.62 1011.79 1011.87 1011.59 1011.60 1011.29 1011.78 1011.90 1011.57 1011.97 1012.24 1012.25 1011.65 1010.64 1009.71 1009.70 1008.32 1007.78 1008.26 1006.43 1006.46 1007.02 1007.25 1008.21 1008.73 1009.53 1009.88
1016.54 1016.06 1015.43 1014.68 1013.90 1014.07 1013.80 1013.07 1011.93 1010.68 1011.58 1011.21 1010.96 1011.13 1011.08 1011.35 1011.62 1011.86 1011.81 1011.72 1011.72 1011.51 1011.06 1011.57 1011.44 1012.09 1012.42 1011.85 1011.83 1011.97 1011.37 1010.16 1008.90 1008.29 1007.46 1008.34 1008.38 1007.32 1007.39 1007.70 1008.22 1008.67 1009.14 1009.69 1010.19
1016.46 1016.12 1015.65 1014.78 1014.59 1014.27 1013.40 1012.32 1011.24 1011.47 1011.24 1011.77 1011.61 1011.56 1011.24 1011.91 1011.99 1012.17 1012.07 1011.95 1012.79 1012.68 1012.12 1012.19 1011.69 1012.30 1012.61 1012.47 1012.35 1011.98 1012.19 1011.36 1010.00 1009.19 1008.38 1008.81 1007.44 1007.15 1008.57 1009.18 1009.30 1009.56 1009.83 1010.18 1010.51
1016.21 1015.25 1014.48 1014.66 1014.72 1014.19 1012.92 1011.47 1011.48 1011.82 1012.22 1011.96 1011.78 1011.53 1011.74 1012.26 1012.59 1012.40 1012.34 1012.64 1013.18 1013.51 1013.40 1012.86 1012.39 1012.72 1012.81 1012.89 1012.92 1011.88 1012.42 1012.54 1012.24 1011.46 1009.83 1008.36 1007.05 1007.22 1007.47 1008.79 1009.22 1009.52 1010.00 1010.70 1010.85
1015.51 1014.58 1014.57 1014.82 1014.75 1013.77 1012.38 1012.34 1012.64 1013.00 1012.99 1012.63 1011.98 1012.15 1011.80 1012.24 1012.70 1012.68 1012.56 1013.52 1013.83 1014.42 1014.65 1014.06 1013.65 1012.91 1013.36 1013.60 1012.83 1012.89 1012.90 1013.00 1012.80 1011.89 1010.21 1008.99 1008.38 1007.27 1008.00 1008.66 1009.17 1009.71 1010.13 1010.50 1010.63
1015.64 1014.09 1014.78 1014.69 1014.36 1013.01 1012.20 1013.10 1013.44 1013.79 1013.80 1013.39 1012.69 1012.70 1012.80 1013.04 1013.27 1013.14 1013.21 1014.21 1014.76 1015.11 1015.44 1015.14 1014.98 1013.70 1013.41 1012.74 1012.43 1012.82 1012.75 1012.95 1013.19 1013.58 1012.33 1010.75 1008.75 1008.58 1009.13 1009.28 1009.72 1010.07 1010.60 1011.01 1011.04
1015.62 1013.83 1015.02 1014.58 1013.46 1013.72 1013.42 1014.61 1015.11 1014.36 1014.37 1014.14 1013.98 1013.83 1013.83 1014.06 1013.86 1013.87 1014.06 1014.71 1015.95 1016.08 1015.84 1016.18 1015.75 1014.36 1013.37 1013.04 1013.76 1013.77 1013.51 1013.77 1013.84 1013.87 1013.70 1012.84 1010.46 1010.32 1009.87 1009.95 1010.42 1011.08 1012.13 1011.57 1011.36
1016.37 1015.58 1015.19 1014.38 1013.97 1014.37 1015.13 1015.22 1015.42 1015.08 1015.17 1014.97 1014.88 1015.06 1015.02 1014.77 1014.93 1014.74 1015.01 1016.15 1016.74 1016.84 1017.13 1017.09 1016.52 1015.18 1013.26 1013.83 1013.94 1013.67 1013.84 1014.44 1014.47 1014.42 1014.03 1013.29 1010.69 1010.40 1010.56 1012.00 1011.92 1011.65 1012.22 1012.95 1011.69
1017.12 1015.85 1015.86 1016.02 1016.74 1016.33 1016.09 1015.88 1015.80 1016.33 1016.12 1016.08 1015.97 1015.93 1015.70 1015.45 1015.56 1015.37 1015.54 1016.14 1017.37 1017.80 1018.55 1018.22 1017.64 1016.24 1014.74 1013.86 1014.09 1013.84 1013.89 1014.05 1014.15 1014.28 1013.60 1012.08 1011.24 1011.19 1011.39 1011.87 1012.27 1012.58 1013.47 1013.20 1012.13
1018.60 1018.81 1019.35 1017.23 1017.01 1017.29 1017.22 1017.00 1016.46 1016.51 1016.83 1016.81 1016.72 1016.77 1016.83 1016.33 1015.95 1015.80 1016.34 1016.66 1017.19 1018.39 1018.62 1018.35 1017.79 1016.62 1015.52 1015.04 1014.64 1014.03 1013.52 1013.55 1013.47 1013.25 1013.03 1012.10 1011.89 1011.51 1012.15 1013.30 1013.36 1013.09 1013.47 1013.57 1013.25
1019.87 1020.11 1019.42 1018.70 1018.69 1017.94 1017.96 1017.52 1017.39 1017.42 1017.61 1017.17 1017.23 1017.70 1017.72 1017.35 1017.11 1016.94 1017.11 1017.42 1017.56 1018.14 1018.58 1018.89 1018.49 1017.37 1016.19 1014.93 1014.35 1013.83 1013.23 1012.83 1012.82 1012.77 1012.52 1012.07 1011.84 1012.73 1012.95 1013.34 1013.42 1013.42 1013.51 1013.07 1012.60
1021.78 1021.70 1020.75 1019.25 1018.56 1018.14 1017.96 1018.20 1018.16 1018.43 1018.24 1018.36 1018.43 1018.39 1017.97 1017.99 1018.29 1018.23 1018.23 1018.21 1018.27 1018.52 1018.90 1019.48 1019.22 1017.98 1016.23 1015.34 1014.75 1013.30 1012.42 1012.61 1012.75 1012.69 1012.58 1012.39 1012.33 1012.40 1013.22 1013.24 1013.29 1013.21 1013.37 1013.22 1012.73
Wind_Speed
10 10 10 9 10 10 10 10 9 9 9 10 10 11 11 10 6 6 13 6 8 10 8 3 5 4 4 6 3 2 5 6 4 5 6 4 4 5 2 5 7 7 9 10 11
11 11 10 10 10 10 10 10 9 9 9 9 10 11 10 10 5 13 4 4 7 8 3 3 7 6 5 3 2 3 2 6 5 5 2 2 4 4 3 1 4 7 9 11 10
12 11 11 11 11 10 10 10 9 9 8 8 7 9 10 10 3 10 5 5 3 9 3 1 3 1 7 5 4 3 8 5 6 4 3 2 2 3 5 2 8 12 14 13 12
12 12 11 11 10 10 10 9 9 9 10 11 11 10 11 9 2 6 7 7 9 8 2 4 3 2 4 7 5 10 6 4 5 4 3 1 4 4 4 7 8 11 13 13 11
12 11 11 10 10 10 9 9 9 9 9 9 11 12 7 6 9 5 4 4 1 6 7 5 5 3 5 5 5 6 4 2 4 3 2 2 5 6 5 5 8 11 12 12 11
13 12 11 10 10 10 9 9 10 10 9 9 9 11 6 9 3 4 6 4 8 8 11 9 5 7 6 4 5 3 2 4 1 2 4 8 9 6 3 6 10 11 10 8 9
14 14 13 11 10 10 9 9 10 9 9 8 8 5 3 8 0 1 1 3 4 4 7 7 4 5 5 5 2 1 7 7 2 3 2 13 13 12 2 9 11 10 9 8 7
14 14 13 12 11 10 10 10 11 10 9 8 7 6 7 2 2 4 3 6 3 2 5 2 2 7 2 3 5 3 6 6 6 3 5 8 11 4 4 12 13 8 5 6 8
15 13 12 11 11 11 11 10 8 6 7 9 6 7 9 6 4 4 3 4 3 6 4 3 2 2 6 5 8 4 7 7 7 5 8 8 16 6 13 13 9 5 3 5 8
15 12 11 10 10 11 10 5 2 5 6 5 2 6 6 5 3 2 1 2 3 2 5 2 3 4 2 6 5 9 10 9 11 7 12 15 16 15 14 13 8 4 4 6 7
17 12 10 9 9 8 5 5 6 7 3 5 5 3 5 1 3 3 1 3 1 2 5 3 4 8 7 5 5 7 11 13 11 11 11 13 18 17 17 10 6 3 5 6 7
18 14 11 9 8 6 7 3 6 6 2 2 1 4 2 3 2 3 3 4 2 4 1 7 7 5 3 4 8 9 11 12 10 5 13 16 24 19 10 1 1 3 5 7 8
18 14 12 10 7 5 8 7 6 3 4 4 2 1 1 5 2 4 4 2 4 3 3 7 6 2 4 9 11 10 10 12 14 17 17 15 19 2 7 4 3 0 3 5 7
19 15 12 13 1 1 3 6 3 4 6 6 6 4 4 2 3 4 2 5 4 6 4 4 4 5 9 11 8 14 8 9 15 17 15 16 10 11 5 8 7 3 6 6 8
19 15 12 6 2 2 6 7 2 5 5 6 6 3 2 4 3 5 1 4 8 5 5 5 6 10 12 7 6 11 9 15 18 21 16 16 8 6 4 10 11 5 5 4 8
20 13 10 3 2 5 7 2 5 7 4 6 4 3 5 2 3 2 1 2 3 6 5 11 3 6 5 3 5 9 13 21 11 8 11 7 7 7 5 6 10 11 3 4 7
20 10 4 3 5 8 6 5 7 6 4 6 3 2 1 2 3 2 3 1 6 5 2 8 1 2 5 8 7 8 14 9 7 8 10 4 10 13 16 9 9 8 6 4 10
18 9 2 5 6 7 5 6 6 2 1 3 1 3 4 1 3 2 4 3 3 3 8 3 4 1 3 8 12 14 7 8 12 13 19 18 9 7 5 5 5 3 4 7 12
14 3 2 8 6 5 7 6 3 1 1 2 4 7 6 4 5 4 1 1 3 3 5 8 4 4 11 12 10 3 8 9 13 18 18 12 11 12 5 5 6 8 4 11 13
1 3 7 12 6 5 6 4 3 2 4 3 5 3 3 1 4 2 2 2 3 1 3 4 10 4 3 7 13 11 9 8 7 8 15 14 22 15 8 12 5 10 8 12 13
3 3 8 11 4 6 2 4 3 5 7 4 3 4 5 4 5 4 1 5 2 2 4 8 5 4 11 9 12 9 11 11 11 9 15 17 9 18 22 18 11 10 13 18 12
4 1 9 7 3 1 2 3 2 3 5 2 3 4 4 1 5 4 3 4 3 3 8 6 7 12 17 12 4 7 9 10 9 14 12 14 19 23 12 17 7 10 15 17 10
4 4 6 8 2 3 2 2 3 2 4 3 1 4 2 2 3 4 2 5 4 5 5 5 5 9 7 7 7 7 9 13 15 13 17 16 16 18 15 8 14 18 14 18 6
4 3 4 5 3 5 4 1 2 4 3 2 2 1 3 4 3 5 5 2 2 9 2 6 6 11 11 16 15 17 16 14 14 9 17 19 24 22 15 18 17 15 11 13 12
5 5 4 5 5 4 3 2 3 1 1 2 3 3 4 5 7 6 3 6 7 3 2 5 8 13 15 16 17 19 19 16 16 17 16 21 21 18 13 11 16 14 10 8 14
5 5 1 1 4 6 2 2 3 2 3 1 3 2 6 7 6 13 12 10 8 3 2 4 5 9 14 16 10 17 20 19 14 11 15 17 17 7 10 11 11 14 14 15 16
2 2 5 3 1 5 3 2 2 4 3 2 4 8 8 6 7 13 13 13 13 11 7 3 4 6 8 7 17 12 5 4 11 13 10 14 14 15 12 12 15 16 17 18 17
Wind_Direction
5 356 351 343 343 343 339 336 333 330 326 323 325 319 317 314 281 196 54 11 321 321 289 237 176 150 164 104 57 274 224 153 130 189 101 50 330 41 67 15 49 46 25 3 352
358 353 348 344 341 343 340 338 334 329 324 324 323 313 312 310 187 70 55 310 307 307 303 219 127 183 110 105 61 279 154 76 65 68 23 44 335 5 291 356 34 7 2 354 349
356 351 346 343 340 341 337 337 334 327 321 318 315 306 304 290 144 51 51 343 316 266 36 80 141 140 105 80 27 11 88 126 113 46 353 40 130 7 319 281 11 342 336 333 331
353 349 345 340 337 336 333 331 329 324 324 326 328 328 320 250 67 45 345 328 307 299 137 161 188 101 62 81 75 112 82 42 66 95 176 164 331 281 315 349 344 328 326 313 313
352 347 341 337 334 332 329 326 324 322 322 321 322 324 276 129 81 57 268 221 299 48 55 86 119 132 87 104 111 99 92 107 110 144 162 277 292 306 237 4 324 328 314 313 312
351 347 341 336 332 329 325 323 323 321 316 313 317 319 243 93 53 3 346 350 27 31 46 52 77 71 92 88 17 52 47 158 89 52 187 307 301 236 147 338 322 326 318 316 316
350 346 341 337 332 327 322 317 313 305 300 301 312 291 83 88 343 315 287 53 28 20 64 45 64 239 158 138 50 181 214 181 206 333 304 326 260 209 353 323 319 333 324 330 348
349 342 337 333 328 323 316 309 300 290 287 286 296 255 90 112 322 211 161 122 101 85 80 53 121 100 343 114 182 230 234 270 136 294 113 305 291 343 338 320 319 331 322 330 351
347 339 334 329 323 319 312 300 276 257 256 277 241 270 119 145 168 65 338 41 98 125 105 159 218 44 188 246 202 187 324 323 325 303 306 307 300 296 308 314 323 302 344 348 348
347 339 332 325 319 316 310 270 159 213 218 252 262 215 172 91 54 342 61 342 45 181 179 197 196 191 124 335 2 337 325 317 310 331 315 299 290 305 305 310 308 291 350 8 12
352 343 330 323 317 317 273 205 206 180 207 360 58 23 116 83 215 150 197 219 264 67 44 88 226 46 42 29 352 314 306 304 309 342 310 302 298 300 304 294 256 337 352 11 10
352 346 334 320 314 300 267 44 36 359 181 87 286 277 270 328 253 159 258 258 295 27 213 221 87 69 18 334 318 311 301 302 314 323 315 303 299 295 298 304 273 342 356 358 358
349 344 336 323 301 259 65 41 317 232 263 103 110 174 86 219 15 64 252 327 299 265 338 313 75 104 302 317 314 308 309 321 316 313 285 287 288 230 168 222 173 21 328 349 359
348 343 335 326 252 51 77 349 307 227 221 129 154 114 169 260 156 353 313 298 220 320 319 289 74 269 300 301 315 301 19 301 295 304 303 318 291 251 194 214 217 305 321 345 352
347 341 327 337 46 333 1 324 195 231 204 142 121 83 178 286 353 106 36 224 281 296 262 31 293 302 299 337 313 306 321 293 290 294 294 275 238 94 140 237 219 1 338 338 1
344 336 318 225 228 37 328 250 223 227 146 143 140 175 197 100 95 91 175 237 321 280 249 284 339 279 335 304 289 315 287 293 272 261 255 76 282 296 328 247 287 321 334 334 349
343 334 309 304 10 333 313 222 229 273 150 151 138 222 133 129 153 7 348 311 305 290 198 311 235 144 273 281 200 256 314 311 287 262 301 90 267 273 298 317 289 310 331 325 341
336 304 71 44 327 320 255 229 251 84 89 118 221 178 234 331 151 316 304 302 115 318 301 337 211 249 113 313 312 295 301 294 302 310 307 305 269 54 5 333 326 324 304 315 338
317 155 95 5 331 291 254 238 38 145 24 259 205 238 164 174 306 286 351 345 49 357 338 310 225 261 267 286 285 79 253 1 287 276 269 272 278 213 244 229 243 273 330 329 338
323 186 47 341 320 262 252 45 114 54 336 243 267 270 242 207 286 277 312 100 113 18 355 360 292 304 36 289 252 251 338 281 255 295 298 308 307 294 10 332 264 317 328 324 325
258 208 24 343 268 244 295 71 117 58 352 304 287 264 269 290 279 293 292 109 31 119 313 307 252 276 272 268 302 279 246 232 259 286 290 297 287 335 328 307 314 300 333 324 331
307 207 11 327 247 343 53 15 298 338 5 314 280 300 284 257 277 273 284 21 44 349 324 19 298 286 289 312 350 258 280 296 277 285 290 292 282 285 340 345 281 1 299 316 313
13 2 27 310 1 62 89 119 37 354 42 355 80 1 342 282 295 266 266 89 37 22 4 2 268 303 288 156 168 244 299 297 281 285 275 277 280 301 322 234 299 341 355 333 297
319 348 59 53 48 331 348 12 180 43 70 40 34 323 297 269 245 280 258 98 3 330 42 232 262 244 270 307 314 292 287 283 278 269 278 274 298 306 317 344 330 346 337 321 320
358 59 15 349 60 355 303 302 292 123 50 352 142 52 351 280 293 275 285 296 303 48 183 283 256 271 275 288 286 284 285 284 277 279 274 289 289 310 347 338 310 318 286 290 284
359 337 187 309 298 285 164 76 323 43 322 108 284 355 304 272 292 296 310 300 282 215 260 282 275 290 285 275 285 291 285 278 269 267 283 297 300 357 328 318 327 329 322 307 308
75 142 278 123 236 275 53 51 354 325 126 336 335 315 288 309 322 300 291 277 265 264 278 282 290 295 272 341 311 283 314 319 302 286 308 302 304 329 323 317 320 312 309 306 310